Location: G�ndlingen
(48.0142°N, 7.6396°E)
Time: 17:11:08
(UTC+00:00)

USA 215 - Pass Details

Date: 05 July 2020
Orbit: 1102 x 1106 km, 123.0° (Epoch: 08 August)

Event Time Altitude Azimuth Distance (km) Brightness Sun altitude
Rises 22:41:03 0° 56° (ENE) 3,926 6.4 -18.3°
Reaches altitude 10° 22:43:33 10° 54° (NE) 2,967 5.8 -18.4°
Maximum altitude 22:49:58 61° 336° (NNW) 1,243 3.8 -18.6°
Drops below altitude 10° 22:56:22 10° 258° (WSW) 2,958 5.5 -18.8°
Sets 22:58:52 0° 255° (WSW) 3,915 6.1 -18.9°
